Location: Unspecified
(35.6895°N, 139.6917°E)
Time: 01:34:22
(UTC+00:00)

ASTRO H - Pass Details

Date: 07 October 2021
Orbit: 561 x 579 km, 31.0° (Epoch: 22 October)

Event Time Altitude Azimuth Distance (km) Brightness Sun altitude
Rises 10:59:40 0° 262° (W) 2,738 ? -33.5°
Reaches altitude 10° 11:02:02 10° 256° (WSW) 1,840 ? -33.9°
Enters shadow 11:02:35 13° 253° (WSW) 1,638 ? -34.0°
